Location: Trondheim
(63.4170°N, 10.4170°E)
Time: 02:47:02
(UTC+02:00)

Iridium 82 - Visible Passes

Search period start: 23 October 2017 00:00
Search period end: 01 November 2017 23:00
Orbit: 473 x 725 km, 86.4° (Epoch: 22 October)

Date Brightness Start Highest point End Pass type
(mag) Time Alt. Az. Time Alt. Az. Time Alt. Az.
23 Oct 8.3 05:35:03 10° NNE 05:37:47 15° NE 05:40:31 10° E visible
23 Oct 6.7 07:11:20 10° N 07:16:06 44° ENE 07:20:52 10° SE visible
23 Oct 5.9 19:54:21 27° ESE 19:55:50 33° E 20:00:12 10° NNE visible
23 Oct 5.7 21:31:03 39° SW 21:32:38 61° WNW 21:37:29 10° N visible
23 Oct 7.8 23:07:45 11° W 23:10:42 18° NW 23:14:04 10° N visible
24 Oct 8.2 05:45:57 10° N 05:49:16 17° NE 05:52:33 10° E visible
24 Oct 6.3 07:22:27 10° N 07:27:23 55° ENE 07:32:16 10° SSE visible
24 Oct 7.1 18:29:19 10° E 18:31:03 12° ENE 18:32:50 10° NE visible
24 Oct 5.6 20:04:47 27° SE 20:06:52 42° E 20:11:29 10° NNE visible
24 Oct 6.1 21:41:28 25° SW 21:43:53 48° WNW 21:48:40 10° N visible
24 Oct 8.1 23:19:21 10° W 23:22:10 15° NW 23:25:03 10° NNW visible
25 Oct 8.0 05:56:56 10° N 06:00:42 21° NE 06:04:26 10° ESE visible
25 Oct 5.8 07:33:36 10° N 07:38:37 69° E 07:43:33 10° SSE visible
25 Oct 6.9 18:39:15 10° E 18:41:55 15° ENE 18:44:39 10° NNE visible
25 Oct 5.3 20:14:52 20° SSE 20:17:55 54° E 20:22:44 10° NNE visible
25 Oct 6.6 21:51:31 14° SW 21:55:10 38° WNW 21:59:48 10° N visible
25 Oct 8.3 23:31:26 10° WNW 23:33:39 13° NW 23:35:54 10° NNW visible
26 Oct 7.7 06:07:58 10° N 06:12:06 25° ENE 06:16:10 10° ESE visible
26 Oct 5.5 07:44:46 10° N 07:49:49 86° E 07:54:45 10° S visible
26 Oct 6.6 18:49:32 10° ESE 18:52:49 19° ENE 18:56:11 10° NNE visible
26 Oct 5.2 20:24:21 10° S 20:29:01 70° E 20:33:58 10° N visible
26 Oct 7.0 22:02:15 10° SW 22:06:29 31° WNW 22:10:55 10° N visible
26 Oct 8.4 23:43:52 10° NW 23:45:10 11° NW 23:46:30 10° NNW visible
27 Oct 8.6 04:43:35 10° NNE 04:44:45 11° NE 04:45:55 10° NE visible
27 Oct 7.4 06:19:03 10° N 06:23:28 30° ENE 06:27:49 10° SE visible
27 Oct 6.4 19:00:00 10° SE 19:03:44 23° ENE 19:07:36 10° NNE visible
27 Oct 5.2 20:35:25 10° S 20:40:10 88° E 20:45:10 10° N visible
27 Oct 7.4 22:13:49 10° WSW 22:17:50 26° WNW 22:22:00 10° N visible
28 Oct 8.4 04:54:04 10° NNE 04:56:16 13° NE 04:58:28 10° ENE visible
28 Oct 7.0 06:30:08 10° N 06:34:48 37° ENE 06:39:20 10° SE visible
28 Oct 6.1 19:10:35 10° SE 19:14:42 29° ENE 19:18:57 10° NNE visible
28 Oct 5.5 20:46:34 10° SSW 20:51:20 74° W 20:56:21 10° N visible
28 Oct 7.7 22:25:30 10° WSW 22:29:14 22° WNW 22:33:04 10° N visible
29 Oct 8.3 04:04:54 10° NNE 04:07:46 15° NE 04:10:37 10° E visible
29 Oct 6.5 05:41:15 10° N 05:46:05 46° ENE 05:50:46 10° SE visible
29 Oct 5.8 18:21:18 10° SSE 18:25:41 36° E 18:30:14 10° NNE visible
29 Oct 5.9 19:57:48 10° SSW 20:02:33 58° WNW 20:07:30 10° N visible
29 Oct 8.0 21:37:18 10° W 21:40:39 18° NW 21:44:04 10° N visible
30 Oct 8.1 04:15:50 10° N 04:19:14 18° NE 04:22:34 10° E visible
30 Oct 6.1 05:52:23 10° N 05:57:20 58° ENE 06:02:06 10° SSE visible
30 Oct 7.0 16:58:33 10° E 17:00:50 13° ENE 17:03:08 10° NE visible
30 Oct 5.6 18:32:07 10° SSE 18:36:43 46° E 18:41:30 10° NNE visible
30 Oct 6.3 20:09:08 10° SSW 20:13:48 46° WNW 20:18:38 10° N visible
30 Oct 8.2 21:49:14 10° W 21:52:06 15° NW 21:55:01 10° NNW visible
31 Oct 7.9 04:26:50 10° N 04:30:39 21° ENE 04:34:22 10° ESE visible
31 Oct 5.6 06:03:32 10° N 06:08:33 73° E 06:13:21 10° SSE visible
31 Oct 6.8 17:08:40 10° ESE 17:11:42 17° ENE 17:14:46 10° NNE visible
31 Oct 5.3 18:43:01 10° SSE 18:47:47 59° E 18:52:43 10° N visible
31 Oct 6.8 20:20:33 10° SW 20:25:05 37° WNW 20:29:45 10° N visible
31 Oct 8.4 22:01:22 10° WNW 22:03:35 13° NW 22:05:50 10° NNW visible
01 Nov 7.6 04:37:53 10° N 04:42:02 26° ENE 04:46:03 10° ESE visible
01 Nov 5.3 06:14:42 10° N 06:19:43 89° W 06:24:29 10° S visible
01 Nov 6.6 17:19:02 10° ESE 17:22:35 20° ENE 17:26:13 10° NNE visible
01 Nov 5.2 18:54:01 10° S 18:58:53 75° E 19:03:55 10° N visible
01 Nov 7.2 20:32:03 10° SW 20:36:24 30° WNW 20:40:50 10° N visible
01 Nov 8.5 22:13:52 10° NW 22:15:06 11° NW 22:16:21 10° NNW visible
